ORBCOMM-X 1 21576U 91050C 26037.75783480 .00000432 00000+0 14041-3 0 9997 2 21576 98.3134 104.2402 0003575 178.1063 182.0142 14.43492842815957 ORBCOMM FM01 1 23545U 95017A 26037.67513409 .00011626 00000+0 10919-2 0 9991 2 23545 69.9608 207.7806 0006123 296.0726 63.9800 14.94108444647487 ORBCOMM FM02 1 23546U 95017B 26037.81837839 .00012802 00000+0 11440-2 0 9991 2 23546 69.9612 225.6734 0007279 299.5835 60.4597 14.96024589647185 ORBCOMM FM08 1 25112U 97084A 26037.76199884 .00002362 00000+0 68435-3 0 9990 2 25112 45.0142 320.9612 0007453 355.6003 4.4782 14.46863278475339 ORBCOMM FM10 1 25113U 97084B 26037.22864024 .00002263 00000+0 66117-3 0 9992 2 25113 45.0156 326.3546 0006094 323.0021 37.0410 14.46590371650392 ORBCOMM FM11 1 25114U 97084C 26037.20543088 .00002228 00000+0 65495-3 0 9994 2 25114 45.0143 327.5332 0006919 324.2490 35.7897 14.46328621475345 ORBCOMM FM12 1 25115U 97084D 26037.23357747 .00002302 00000+0 67499-3 0 9992 2 25115 45.0148 327.1228 0005977 322.4637 37.5797 14.46356774475144 ORBCOMM FM09 1 25116U 97084E 26037.22000508 .00002299 00000+0 67641-3 0 9996 2 25116 45.0154 328.3884 0007123 311.9857 48.0388 14.46185907475348 ORBCOMM FM05 1 25117U 97084F 26037.43351234 .00002215 00000+0 64297-3 0 9997 2 25117 45.0151 322.5310 0003568 327.6559 32.4074 14.46970723474524 ORBCOMM FM06 1 25118U 97084G 26037.22318374 .00002495 00000+0 71646-3 0 9999 2 25118 45.0145 322.9914 0002476 328.2451 184.7857 14.47145084475411 ORBCOMM FM07 1 25119U 97084H 26037.20574253 .00002333 00000+0 67265-3 0 9991 2 25119 45.0139 323.8179 0004353 322.8573 37.1977 14.47150175475409 ORBCOMM FM03 1 25158U 98007B 26037.51993303 .00001465 00000+0 55128-3 0 9995 2 25158 107.9663 257.2029 0044975 201.1097 158.8188 14.35231139457659 ORBCOMM FM04 1 25159U 98007C 26037.53401608 .00001417 00000+0 53332-3 0 9992 2 25159 107.9649 260.6119 0040684 198.5442 161.4217 14.35461426457846 ORBCOMM FM17 1 25413U 98046A 26037.74728842 .00001043 00000+0 40646-3 0 9992 2 25413 44.9927 230.1291 0002090 313.7055 46.3619 14.35679726436872 ORBCOMM FM18 1 25414U 98046B 26037.32769032 .00001979 00000+0 67618-3 0 9999 2 25414 44.9914 143.0842 0002829 12.0372 348.0544 14.39355435437977 ORBCOMM FM19 1 25415U 98046C 26037.31067297 .00001967 00000+0 67463-3 0 9998 2 25415 44.9927 145.5197 0001770 353.7807 37.8597 14.39177834437925 ORBCOMM FM20 1 25416U 98046D 26037.32918171 .00001503 00000+0 54095-3 0 9999 2 25416 44.9934 151.9470 0000799 205.9265 154.1544 14.37821732437954 ORBCOMM FM16 1 25417U 98046E 26037.72597428 .00002034 00000+0 68834-3 0 9998 2 25417 44.9921 138.3789 0002474 40.3348 319.7684 14.39742576438043 ORBCOMM FM15 1 25418U 98046F 26037.27596418 .00001838 00000+0 63093-3 0 9990 2 25418 44.9954 146.3834 0002242 39.9273 320.1740 14.39362775437962 ORBCOMM FM14 1 25419U 98046G 26037.29911832 .00001823 00000+0 62098-3 0 9992 2 25419 44.9940 143.7789 0001024 22.8004 337.2890 14.39794718437947 ORBCOMM FM13 1 25420U 98046H 26036.72602576 .00001854 00000+0 64904-3 0 9995 2 25420 44.9963 156.8931 0003526 5.7264 354.3624 14.38366493436853 ORBCOMM FM21 1 25475U 98053A 26037.00090132 .00001093 00000+0 40506-3 0 9991 2 25475 45.0068 241.7606 0001225 342.2422 17.8383 14.37942315430896 ORBCOMM FM22 1 25476U 98053B 26036.99470957 .00001394 00000+0 49185-3 0 9992 2 25476 45.0058 234.6142 0002703 327.9226 32.1458 14.39153582430947 ORBCOMM FM23 1 25477U 98053C 26036.96653841 .00001152 00000+0 42239-3 0 9990 2 25477 45.0069 243.6583 0002132 326.5797 33.4917 14.38198118431042 ORBCOMM FM24 1 25478U 98053D 26037.01563515 .00001355 00000+0 48230-3 0 9998 2 25478 45.0063 239.8221 0001892 337.5938 22.4827 14.38834291431119 ORBCOMM FM25 1 25479U 98053E 26036.99188324 .00001267 00000+0 45413-3 0 9998 2 25479 45.0055 238.2427 0004201 344.7173 15.3548 14.38802548431403 ORBCOMM FM26 1 25480U 98053F 26037.51216386 .00001034 00000+0 38736-3 0 9991 2 25480 45.0052 234.0102 0006066 2.2260 357.8615 14.37746890431360 ORBCOMM FM27 1 25481U 98053G 26036.97409681 .00001369 00000+0 48678-3 0 9990 2 25481 45.0040 238.4376 0000664 26.1314 333.9568 14.38842617431336 ORBCOMM FM28 1 25482U 98053H 26037.40363698 .00001577 00000+0 55242-3 0 9993 2 25482 45.0039 173.6244 0003296 44.3903 315.7210 14.38952240432088 ORBCOMM FM30 1 25980U 99065A 26037.12810025 .00001231 00000+0 45069-3 0 9993 2 25980 45.0317 61.9019 0004232 108.7573 251.3735 14.37910754368110 ORBCOMM FM31 1 25981U 99065B 26037.39049554 .00001296 00000+0 47290-3 0 9993 2 25981 45.0233 54.1039 0002492 162.1307 197.9630 14.37834758367701 ORBCOMM FM32 1 25982U 99065C 26037.17410811 .00001213 00000+0 45371-3 0 9995 2 25982 45.0157 73.2680 0004632 141.0183 219.1000 14.36898277368240 ORBCOMM FM33 1 25983U 99065D 26037.19031247 .00001420 00000+0 48442-3 0 9992 2 25983 45.0298 325.8686 0006798 163.4946 196.6126 14.40714914369800 ORBCOMM FM36 1 25984U 99065E 26037.10830278 .00001607 00000+0 56300-3 0 9994 2 25984 45.0393 61.7194 0002331 346.9413 13.1375 14.38891807368108 ORBCOMM FM35 1 25985U 99065F 26037.12250014 .00001209 00000+0 44448-3 0 9999 2 25985 45.0395 68.6062 0002569 164.3645 195.7283 14.37792678368440 ORBCOMM FM34 1 25986U 99065G 26037.78638154 .00001170 00000+0 43243-3 0 9996 2 25986 45.0392 65.9547 0001609 75.1491 284.9535 14.37717534368650 ORBCOMM FM38 1 33060U 08031A 26037.05072230 .00002677 00000+0 35569-3 0 9993 2 33060 48.4388 279.7605 0004718 326.5456 33.5162 14.82584413949435 ORBCOMM FM41 1 33061U 08031B 26037.15253216 .00002579 00000+0 34740-3 0 9991 2 33061 48.4427 287.8927 0004105 310.3972 209.9176 14.82123903948921 ORBCOMM FM29 1 33062U 08031C 26037.70188566 .00002846 00000+0 37894-3 0 9998 2 33062 48.4381 292.7503 0005722 313.3577 92.7517 14.82295612948920 ORBCOMM FM39 1 33063U 08031D 26037.15432611 .00002514 00000+0 35074-3 0 9991 2 33063 48.4406 322.3206 0006834 282.6170 77.3981 14.80691589948454 ORBCOMM FM37 1 33064U 08031E 26037.70564832 .00002335 00000+0 32632-3 0 9992 2 33064 48.4396 307.8533 0005332 303.3034 89.5603 14.80887256948797 ORBCOMM FM40 1 33065U 08031F 26037.12542296 .00003238 00000+0 41566-3 0 9998 2 33065 48.4407 290.4801 0006158 317.3254 195.6536 14.83485508948872 VESSELSAT 1 1 37840U 11058C 26037.32727581 .00000412 00000+0 80104-4 0 9993 2 37840 19.9615 117.0369 0013460 242.2315 117.6725 14.11413320739429 ORBCOMM FM109 1 40086U 14040A 26037.21155962 .00001107 00000+0 27143-3 0 9994 2 40086 47.0049 350.6525 0002273 322.3319 37.7407 14.58671089615220 ORBCOMM FM107 1 40087U 14040B 26037.29642330 .00001228 00000+0 29653-3 0 9995 2 40087 47.0066 351.1166 0001823 280.6248 79.4432 14.58749692615311 ORBCOMM FM106 1 40088U 14040C 26036.73390101 .00001840 00000+0 33288-3 0 9999 2 40088 47.0594 156.9600 0015558 72.4869 287.7721 14.70220124617830 ORBCOMM FM111 1 40089U 14040D 26037.75564965 .00004335 00000+0 48504-3 0 9993 2 40089 47.0016 329.6662 0029027 237.8985 121.9094 14.88152517625143 ORBCOMM FM104 1 40090U 14040E 26037.40670156 .00000875 00000+0 22946-3 0 9994 2 40090 47.0061 27.0442 0016256 199.0070 161.0210 14.57117178614776 ORBCOMM FM103 1 40091U 14040F 26037.83009897 .00001055 00000+0 26048-3 0 9998 2 40091 47.0069 349.2919 0002452 280.6226 79.4384 14.58657130598353 ORBCOMM FM114 1 41179U 15081A 26037.02408506 .00000759 00000+0 19744-3 0 9998 2 41179 47.0040 262.0487 0002554 312.7130 47.3540 14.58674730538601 ORBCOMM FM119 1 41180U 15081B 26037.36465299 .00001007 00000+0 25041-3 0 9993 2 41180 46.9993 169.7955 0000484 354.0994 5.9885 14.58618664539908 ORBCOMM FM105 1 41181U 15081C 26037.42967551 .00000408 00000+0 15922-3 0 9990 2 41181 46.9998 197.3754 0002131 281.3432 78.7209 14.45465761534635 ORBCOMM FM110 1 41182U 15081D 26037.01323419 .00000953 00000+0 23887-3 0 9999 2 41182 47.0012 261.5793 0002831 197.8257 162.2529 14.58665270538476 ORBCOMM FM118 1 41183U 15081E 26036.97927312 .00000876 00000+0 22251-3 0 9994 2 41183 47.0032 262.0481 0002648 155.9300 204.1710 14.58667835538577 ORBCOMM FM112 1 41184U 15081F 26037.39327552 .00001291 00000+0 31057-3 0 9998 2 41184 46.9981 168.6044 0002049 302.5258 57.5430 14.58665834539850 ORBCOMM FM113 1 41185U 15081G 26037.37052976 .00001342 00000+0 32126-3 0 9997 2 41185 46.9995 169.0755 0001686 305.5195 54.5533 14.58669811539837 ORBCOMM FM115 1 41186U 15081H 26037.33466488 .00001237 00000+0 27269-3 0 9996 2 41186 47.0000 5.5070 0000697 354.3842 5.7038 14.63056451542055 ORBCOMM FM108 1 41187U 15081J 26037.47023981 .00001337 00000+0 32038-3 0 9990 2 41187 47.0049 80.1332 0003365 300.7794 59.2760 14.58673331540998 ORBCOMM FM117 1 41188U 15081K 26037.09316123 .00001290 00000+0 31035-3 0 9996 2 41188 47.0012 80.5915 0003650 306.7430 53.3120 14.58665646540984 ORBCOMM FM116 1 41189U 15081L 26037.34782617 .00000975 00000+0 24346-3 0 9996 2 41189 47.0014 169.1676 0002043 196.9741 163.1077 14.58647487539830